Regional Weather Roundup
Issued by NWS

Home | Current Version | Previous Version | Text Only | Print | Product List | Glossary On
Versions: 1 2 3 4 5 6 7 8 9 10 11 12 13 14 15 16 17 18 19 20 21 22 23 24 25 26 27 28 29 30 31 32 33 34 35 36 37 38 39 40 41 42 43 44 45 46 47 48 49 50
000
ASUS43 KMPX 282101
RWRMN
WEATHER ROUNDUP FOR MINNESOTA
NATIONAL WEATHER SERVICE TWIN CITIES/CHANHASSEN MN
400 PM CDT MON JUL 28 2014


NOTE: "FAIR" INDICATES FEW OR NO CLOUDS BELOW 12,000 FEET WITH NO
SIGNIFICANT WEATHER AND/OR OBSTRUCTIONS TO VISIBILITY. N/A MEANS
CURRENT SKY AND/OR WEATHER CONDITIONS ARE NOT AVAILABLE.

MNZ060>063-068>070-282200-
   Twin Cities Metro

CITY           SKY/WX    TMP DP  RH WIND       PRES   REMARKS
TWIN CITIES    MOSUNNY   77  50  38 NW13      30.16F
ST PAUL        PTSUNNY   75  50  41 NW8       30.16F
CRYSTAL        PTSUNNY   77  51  40 NW12G18   30.15F
BLAINE         MOSUNNY   75  54  46 N9        30.16F
LAKEVILLE      PTSUNNY   72  50  46 N7        30.17S
EDEN PRAIRIE   MOSUNNY   76  53  44 N7        30.16F
SOUTH ST PAUL  PTSUNNY   76  49  38 NW10      30.15F
LAKE ELMO      FAIR      73  54  49 NW7       30.17F
$$
MNZ001>005-007-008-013>017-022>024-027-028-282200-
   Northwest Minnesota

CITY           SKY/WX    TMP DP  RH WIND       PRES   REMARKS
BEMIDJI        SUNNY     70  53  54 N8        30.21S
HALLOCK        MOSUNNY   73  54  49 N9        30.22S
ROSEAU         MOSUNNY   75  57  53 N6        30.20F
WARROAD        MOSUNNY   75  57  53 NE3       30.20F
THIEF RVR FALL SUNNY     72  52  49 NW5       30.23F
CROOKSTON      SUNNY     73  54  49 N8        30.23F
FOSSTON        SUNNY     73  54  49 NW8       30.23F
DETROIT LAKES  SUNNY     72  50  46 NW10      30.24F
MOORHEAD       PTSUNNY   72  54  53 N5        30.24F
PARK RAPIDS    MOSUNNY   73  53  49 NW12G17   30.21S
$$
MNZ006-009>011-018-025>026-282200-
   North Central Minnesota

CITY           SKY/WX    TMP DP  RH WIND       PRES   REMARKS
BAUDETTE       SUNNY     75  54  47 NW9       30.19F
FLAG ISLAND    MOSUNNY   73  52  46 NW8       30.17F
INTL FALLS     PTSUNNY   73  54  51 NW8       30.15F
WASKISH        MOSUNNY   75  55  50 CALM      30.19F
BIG FORK       MOSUNNY   73  54  49 NW3       30.17F
LONGVILLE      PTSUNNY   73  54  49 NW6       30.19S
GRAND RAPIDS   MOSUNNY   73  52  46 N12       30.17F
CRANE LAKE     PTSUNNY   70  55  60 NW7       30.15F
ORR            MOSUNNY   73  52  46 NW7       30.13F
COOK           MOSUNNY   73  54  49 NW7       30.15F
$$
MNZ012-019>021-037-282200-
   Northeast Minnesota

CITY           SKY/WX    TMP DP  RH WIND       PRES   REMARKS
DULUTH         MOSUNNY   74  52  46 NW12      30.13F
ELY            MOSUNNY   72  54  53 NW10G17   30.12F
HIBBING        CLOUDY    74  53  48 NW10      30.15F
EVELETH        PTSUNNY   72  54  53 W8        30.15F
DULUTH HARBOR  SUNNY     77  54  44 NW12      30.12F
TWO HARBORS    CLOUDY    70  54  56 CALM      30.10F
SILVER BAY     MOSUNNY   72  61  68 CALM      30.09F
GRAND MARAIS     N/A     75  55  49 N10G16    30.04F
G MARAIS ARPRT MOSUNNY   68  52  56 NW10G17   30.09F
$$
MNZ029>031-032-039>041-046>048-054>057-064-282200-
   West Central Minnesota

CITY           SKY/WX    TMP DP  RH WIND       PRES   REMARKS
FERGUS FALLS   MOSUNNY   72  46  40 N5        30.23S
WHEATON        PTSUNNY   70  52  52 W9        30.26F
MORRIS         MOSUNNY   75  54  46 N6        30.23S
ALEXANDRIA     MOSUNNY   74  50  42 W7        30.24S
ELBOW LAKE     FAIR      71  53  52 NW8       30.23F
WADENA         MOSUNNY   72  54  53 N8        30.21F
GLENWOOD       PTSUNNY   73  52  46 N8        30.23S
APPLETON       SUNNY     75  50  41 N9        30.23F
BENSON         PTSUNNY   72  52  49 N7        30.23S
ORTONVILLE     CLOUDY    70  52  52 N10       30.25F
MADISON        MOSUNNY   73  54  49 N10       30.25S
WILLMAR        FAIR      73  52  46 NW8       30.23S
$$
MNZ033>034-036-042>043-049>051-058-059-282200-
   Central Minnesota

CITY           SKY/WX    TMP DP  RH WIND       PRES   REMARKS
ST CLOUD       MOSUNNY   78  52  40 VRB7      30.17F
SAUK CENTRE    MOCLDY    73  52  47 NW7       30.21S
PAYNESVILLE    PTSUNNY   74  48  40 W10       30.21S
AITKIN         PTSUNNY   72  55  56 N5        30.17S
PINE RIVER     SUNNY     73  54  49 NW9       30.21F
BRAINERD       SUNNY     74  52  46 N13       30.19S
STAPLES        PTSUNNY   72  52  49 N10       30.20S
LONG PRAIRIE   CLOUDY    72  52  49 NW6       30.21F
LITTLE FALLS   MOSUNNY   72  50  46 NW8       30.19F
LITCHFIELD     PTSUNNY   73  54  49 NW10      30.21S
BUFFALO        PTSUNNY   75  50  41 N6        30.19S
MAPLE LAKE     CLOUDY    75  55  48 N7        30.19F
$$
MNZ037-044-045-052-053-282200-
   East Central Minnesota

CITY           SKY/WX    TMP DP  RH WIND       PRES   REMARKS
PRINCETON      PTSUNNY   73  54  49 NW7       30.17F
MORA           SUNNY     72  52  49 N3        30.18F
CAMBRIDGE      SUNNY     77  55  47 NW9       30.15S
RUSH CITY      MOSUNNY   73  53  50 N8        30.16F
MOOSE LAKE     MOSUNNY   73  50  43 NW8       30.14F
HINCKLEY       FAIR      73  54  49 N6        30.16S
CLOQUET        SUNNY     73  48  40 NW13      30.15F
MCGREGOR       MOSUNNY   73  52  46 NW6       30.17F
$$
MNZ071>073-080-081-089-090-097-098-282200-
   Southwest Minnesota

CITY           SKY/WX    TMP DP  RH WIND       PRES   REMARKS
MONTEVIDEO     SUNNY     75  54  46 N12       30.24F
GRANITE FALLS  CLOUDY    72  51  48 NW7       30.24F
CANBY          CLOUDY    73  53  49 N8        30.26S
MARSHALL       PTSUNNY   72  54  53 N12       30.23S
REDWOOD FALLS  SUNNY     75  50  41 NW13      30.21F
OLIVIA         MOSUNNY   73  52  46 N12       30.21S
PIPESTONE      MOSUNNY   72  54  53 NE9       30.25F
WINDOM         PTSUNNY   72  55  56 N10       30.23S
WORTHINGTON    PTSUNNY   70  52  52 N12       30.25S
JACKSON        PTSUNNY   72  54  53 N6        30.23S
TRACY          CLOUDY    71  54  54 N10       30.25S
SLAYTON        PTSUNNY   71  51  49 N14       30.25F
$$
MNZ065>067-074>077-082>085-091>093-282200-
   South Central Minnesota

CITY           SKY/WX    TMP DP  RH WIND       PRES   REMARKS
MANKATO        CLOUDY    73  50  43 NW7       30.19S
NEW ULM        MOSUNNY   73  52  46 N6        30.20F
ST JAMES       SUNNY     75  52  43 NW7       30.21F
FAIRMONT       CLOUDY    73  52  46 N9        30.21S
GLENCOE        MOSUNNY   73  49  42 N9        30.19S
FARIBAULT      CLOUDY    73  48  40 NW7       30.19S
OWATONNA       PTSUNNY   73  48  40 NW12      30.18F
WASECA         CLOUDY    72  50  46 NW8       30.21S
ALBERT LEA     PTSUNNY   73  54  49 NW7       30.19F
$$
MNZ078>079-086>088-094>096-282200-
   Southeast Minnesota

CITY           SKY/WX    TMP DP  RH WIND       PRES   REMARKS
ROCHESTER      PTSUNNY   70  51  51 N12G18    30.19S
RED WING       PTSUNNY   75  48  38 N5        30.15S
STANTON        SUNNY     76  48  37 N7        30.16S
DODGE CENTER   MOSUNNY   72  55  56 N9        30.19S
WINONA         CLOUDY    73  50  43 N7        30.16S
AUSTIN         PTSUNNY   70  54  56 N5        30.18S
PRESTON        MOSUNNY   70  58  65 N9        30.18F
$$
ABBREVIATIONS USED IN REMARKS
   TC - TEMPERATURES IN CELSIUS
  WCI - WIND CHILL INDEX
   HX - HEAT INDEX
  VSB - VISIBILITY
$$



USA.gov is the U.S. government's official web portal to all federal, state and local government web resources and services.